• In Russia
  • List of Countries
  • For 7 days
  • Water Temperature
  • Satellite Maps
  • Weather Map
  • Weather Widgets
  • user-avatar
    Login

    Hourly Weather Saseni

    Today, 18 August, Saturday

    Time Temperature Precipitation Wind Pressure Humidity
    00:00 +24°C° 0 mm 2 mps 752 mmHg 67%
    01:00 +24°C° 0 mm 2 mps 752 mmHg 68%
    02:00 +23°C° 0 mm 2 mps 752 mmHg 72%
    03:00 +23°C° 0 mm 2 mps 752 mmHg 72%
    04:00 +23°C° 0 mm 2 mps 752 mmHg 73%
    05:00 +21°C° 0 mm 2 mps 752 mmHg 73%
    06:00 +24°C° 0 mm 2 mps 753 mmHg 69%
    07:00 +25°C° 0 mm 2 mps 753 mmHg 65%
    08:00 +26°C° 0 mm 2 mps 753 mmHg 60%
    09:00 +27°C° 0 mm 3 mps 753 mmHg 55%
    10:00 +29°C° 0 mm 3 mps 753 mmHg 50%
    11:00 +30°C° 0 mm 3 mps 753 mmHg 45%
    12:00 +31°C° 0 mm 3 mps 753 mmHg 41%
    13:00 +34°C° 0 mm 3 mps 753 mmHg 37%
    14:00 +35°C° 0 mm 2 mps 753 mmHg 33%
    15:00 +35°C° 0 mm 2 mps 753 mmHg 33%
    16:00 +35°C° 0 mm 2 mps 753 mmHg 32%
    17:00 +35°C° 0 mm 2 mps 753 mmHg 32%
    18:00 +32°C° 0 mm 2 mps 753 mmHg 37%
    19:00 +30°C° 0 mm 2 mps 753 mmHg 42%
    20:00 +28°C° 0 mm 2 mps 753 mmHg 47%
    21:00 +27°C° 0 mm 2 mps 753 mmHg 49%
    22:00 +26°C° 0 mm 3 mps 754 mmHg 52%
    23:00 +26°C° 0 mm 3 mps 754 mmHg 55%

    Tomorrow, 19 August, Sunday

    Time Temperature Precipitation Wind Pressure Humidity
    00:00 +25°C° 0.1 mm 2 mps 754 mmHg 60%
    01:00 +24°C° 0.1 mm 2 mps 754 mmHg 66%
    02:00 +23°C° 0.1 mm 1 mps 754 mmHg 71%
    03:00 +23°C° 0 mm 1 mps 754 mmHg 73%
    04:00 +22°C° 0 mm 1 mps 754 mmHg 75%
    05:00 +22°C° 0 mm 1 mps 754 mmHg 77%
    06:00 +24°C° 0 mm 1 mps 754 mmHg 71%
    07:00 +25°C° 0 mm 1 mps 754 mmHg 65%
    08:00 +27°C° 0 mm 2 mps 755 mmHg 59%
    09:00 +29°C° 0 mm 2 mps 755 mmHg 53%
    10:00 +30°C° 0 mm 2 mps 755 mmHg 48%
    11:00 +32°C° 0 mm 2 mps 755 mmHg 42%
    12:00 +34°C° 0 mm 2 mps 754 mmHg 40%
    13:00 +34°C° 0 mm 2 mps 754 mmHg 38%
    14:00 +35°C° 0 mm 2 mps 754 mmHg 35%
    15:00 +34°C° 0 mm 2 mps 754 mmHg 37%
    16:00 +34°C° 0 mm 2 mps 754 mmHg 39%
    17:00 +32°C° 0 mm 2 mps 753 mmHg 40%
    18:00 +31°C° 0.1 mm 2 mps 753 mmHg 44%
    19:00 +29°C° 0.1 mm 2 mps 754 mmHg 48%
    20:00 +28°C° 0.1 mm 2 mps 754 mmHg 52%
    21:00 +27°C° 0.3 mm 2 mps 754 mmHg 57%
    22:00 +26°C° 0.3 mm 2 mps 754 mmHg 62%
    23:00 +24°C° 0.3 mm 2 mps 754 mmHg 66%

    Day after tomorrow, 20 August, Monday

    Time Temperature Precipitation Wind Pressure Humidity
    00:00 +24°C° 0.5 mm 2 mps 754 mmHg 68%
    01:00 +23°C° 0.5 mm 1 mps 754 mmHg 71%
    02:00 +23°C° 0.5 mm 1 mps 754 mmHg 73%
    03:00 +22°C° 0 mm 1 mps 754 mmHg 73%
    04:00 +22°C° 0 mm 1 mps 753 mmHg 73%
    05:00 +22°C° 0 mm 1 mps 753 mmHg 73%
    06:00 +23°C° 0 mm 1 mps 753 mmHg 69%
    07:00 +24°C° 0 mm 1 mps 754 mmHg 65%
    08:00 +26°C° 0 mm 2 mps 754 mmHg 61%
    09:00 +27°C° 0 mm 2 mps 754 mmHg 54%
    10:00 +29°C° 0 mm 2 mps 754 mmHg 47%
    11:00 +31°C° 0 mm 2 mps 754 mmHg 40%
    12:00 +32°C° 0 mm 2 mps 754 mmHg 37%
    13:00 +33°C° 0 mm 1 mps 753 mmHg 34%
    14:00 +34°C° 0 mm 1 mps 753 mmHg 31%
    15:00 +33°C° 0 mm 1 mps 753 mmHg 32%
    16:00 +33°C° 0 mm 1 mps 753 mmHg 32%
    17:00 +33°C° 0 mm 1 mps 752 mmHg 33%
    18:00 +31°C° 0 mm 1 mps 752 mmHg 37%
    19:00 +29°C° 0 mm 1 mps 753 mmHg 41%
    20:00 +27°C° 0 mm 2 mps 753 mmHg 45%
    21:00 +26°C° 0.2 mm 2 mps 753 mmHg 48%
    22:00 +25°C° 0.2 mm 2 mps 753 mmHg 51%
    23:00 +24°C° 0.2 mm 2 mps 753 mmHg 53%

    21 August, Tuesday

    Time Temperature Precipitation Wind Pressure Humidity
    00:00 +23°C° 0.1 mm 2 mps 753 mmHg 54%
    01:00 +23°C° 0.1 mm 2 mps 753 mmHg 56%
    02:00 +23°C° 0.1 mm 2 mps 753 mmHg 57%
    03:00 +22°C° 0 mm 1 mps 753 mmHg 59%
    04:00 +22°C° 0 mm 1 mps 753 mmHg 60%
    05:00 +21°C° 0 mm 1 mps 753 mmHg 62%
    06:00 +23°C° 0 mm 1 mps 753 mmHg 58%
    07:00 +25°C° 0 mm 1 mps 753 mmHg 55%
    08:00 +27°C° 0 mm 1 mps 753 mmHg 51%
    09:00 +28°C° 0 mm 1 mps 753 mmHg 46%
    10:00 +30°C° 0 mm 2 mps 753 mmHg 41%
    11:00 +32°C° 0 mm 2 mps 753 mmHg 35%
    12:00 +32°C° 0 mm 2 mps 753 mmHg 33%
    13:00 +34°C° 0 mm 2 mps 752 mmHg 32%
    14:00 +35°C° 0 mm 2 mps 752 mmHg 30%
    15:00 +35°C° 0 mm 2 mps 752 mmHg 30%
    16:00 +35°C° 0 mm 2 mps 752 mmHg 31%
    17:00 +35°C° 0 mm 2 mps 752 mmHg 31%
    18:00 +31°C° 0 mm 2 mps 752 mmHg 36%
    19:00 +29°C° 0 mm 2 mps 752 mmHg 41%
    20:00 +27°C° 0 mm 1 mps 752 mmHg 46%
    21:00 +27°C° 0 mm 2 mps 753 mmHg 49%
    22:00 +26°C° 0 mm 2 mps 753 mmHg 53%
    23:00 +25°C° 0 mm 2 mps 753 mmHg 56%

    22 August, Wednesday

    Time Temperature Precipitation Wind Pressure Humidity
    00:00 +24°C° 0 mm 2 mps 753 mmHg 61%
    01:00 +24°C° 0 mm 2 mps 753 mmHg 66%
    02:00 +23°C° 0 mm 2 mps 753 mmHg 72%
    03:00 +23°C° 0 mm 2 mps 754 mmHg 76%
    04:00 +21°C° 0 mm 2 mps 754 mmHg 80%
    05:00 +21°C° 0 mm 2 mps 754 mmHg 84%
    06:00 +22°C° 0 mm 3 mps 754 mmHg 78%
    07:00 +25°C° 0 mm 3 mps 755 mmHg 72%
    08:00 +26°C° 0 mm 3 mps 755 mmHg 66%
    09:00 +27°C° 0 mm 3 mps 755 mmHg 60%
    10:00 +29°C° 0 mm 4 mps 755 mmHg 54%
    11:00 +30°C° 0 mm 4 mps 755 mmHg 47%
    12:00 +32°C° 0 mm 4 mps 755 mmHg 46%
    13:00 +32°C° 0 mm 4 mps 755 mmHg 44%
    14:00 +32°C° 0 mm 4 mps 755 mmHg 43%
    15:00 +32°C° 0 mm 4 mps 755 mmHg 44%
    16:00 +30°C° 0 mm 4 mps 755 mmHg 44%
    17:00 +30°C° 0 mm 4 mps 755 mmHg 45%
    18:00 +28°C° 0 mm 4 mps 755 mmHg 49%
    19:00 +27°C° 0 mm 4 mps 755 mmHg 54%
    20:00 +25°C° 0 mm 4 mps 756 mmHg 58%
    21:00 +23°C° 0 mm 4 mps 756 mmHg 60%
    22:00 +22°C° 0 mm 4 mps 756 mmHg 61%
    23:00 +22°C° 0 mm 4 mps 756 mmHg 62%

    23 August, Thursday

    Time Temperature Precipitation Wind Pressure Humidity
    00:00 +21°C° 0 mm 4 mps 756 mmHg 61%
    01:00 +20°C° 0 mm 3 mps 756 mmHg 59%
    02:00 +20°C° 0 mm 3 mps 756 mmHg 57%
    03:00 +19°C° 0 mm 3 mps 756 mmHg 57%
    04:00 +19°C° 0 mm 3 mps 756 mmHg 58%
    05:00 +18°C° 0 mm 2 mps 756 mmHg 58%
    06:00 +19°C° 0 mm 3 mps 756 mmHg 55%
    07:00 +21°C° 0 mm 3 mps 757 mmHg 52%
    08:00 +22°C° 0 mm 3 mps 757 mmHg 49%
    09:00 +24°C° 0 mm 3 mps 757 mmHg 45%
    10:00 +26°C° 0 mm 3 mps 756 mmHg 40%
    11:00 +28°C° 0 mm 3 mps 756 mmHg 36%
    12:00 +28°C° 0 mm 3 mps 756 mmHg 34%
    13:00 +29°C° 0 mm 3 mps 756 mmHg 32%
    14:00 +30°C° 0 mm 3 mps 755 mmHg 30%
    15:00 +30°C° 0 mm 3 mps 755 mmHg 30%
    16:00 +30°C° 0 mm 3 mps 755 mmHg 30%
    17:00 +29°C° 0 mm 3 mps 755 mmHg 30%
    18:00 +27°C° 0 mm 3 mps 755 mmHg 34%
    19:00 +25°C° 0 mm 3 mps 755 mmHg 39%
    20:00 +22°C° 0 mm 3 mps 755 mmHg 43%
    21:00 +21°C° 0 mm 3 mps 755 mmHg 44%
    22:00 +20°C° 0 mm 3 mps 755 mmHg 45%
    23:00 +19°C° 0 mm 3 mps 755 mmHg 46%
    Show more